HULIANWANG DIGUI-52 (65109 NORAD) Tracking and Keplerian Element Data

This shows tracking and keplerian element data for the satellite.

Feedback or suggestion? Click here.




ElementValue
Catalog65109
NameHULIANWANG DIGUI-52
Epoch Orbit1888
Epoch Day354.20946563
Epoch Year2025
RAAN247.6691
Inclination50.0024
Eccentricity0.000983
Argument of Perigee295.0688
Mean Anonmoly64.9164
Mean Motion13.29329481
Decay Rate-4E-07
L11 65109U 25168D 25354.20946563 -.00000040 00000+0 18120-3 0 9996
L22 65109 50.0024 247.6691 0009830 295.0688 64.9164 13.29329481 18884



Live tracking and technical data element details for HULIANWANG DIGUI-52 (NORAD 65109). HULIANWANG DIGUI-52 can be tracked NOW for your location showing map with azimuth and elevation plus other details from your city location.







IsCatalogInMostPopularTable: catalog: 65109, numindb: 4
Update: records affected: 1



GetName: 65109 HULIANWANG DIGUI-52

Hit Count: updated at: Sat, 11 Apr 2026 20:02:21 GMT